北斗三号 M4 (BEIDOU 3M4)

导读

BEIDOU-3 M8 是中国北斗三号全球卫星导航系统中的一颗中圆地球轨道(MEO)卫星,属于北斗三号的组成部分之一。该卫星主要承担定位、导航和授时功能,提升了系统的全球覆盖能力与精度。北斗三号系统由多颗地球静止轨道(GEO)、倾斜地球同步轨道(IGSO)和中圆轨道卫星组成,M8 卫星的发射进一步增强了系统的稳定性和服务性能,为全球用户提供更优质的服务。

基本信息
目录编号:
43108
目录名称:
BEIDOU 3M4
国际标识:
2018-003B
轨道中心:
EARTH
卫星名称:
北斗三号 M4
卫星全名:
北斗三号 M4 (BEIDOU 3M4)
卫星状态:
在轨 (已飞行3076 天)
发射日期:
2018-01-11 UTC
国别 :
中国 (CN)
星等 :
--
轨道信息
数据来源 国际轨道数据 AOE轨道数据
星历时间 2026-06-12T06:13:06+0800
2天前
查看轨道信息
2026-06-12T16:00:00+0800
2天前
查看轨道信息
半长轴 27906.179km 27906.209km
偏心率 0.0002464 0.0002468
轨道倾角 54.326° 54.325°
近地点辐角 263.176° 263.809°
升交点赤经 302.481° 302.466°
平近点角 96.779° 9.406°
近地点 21521.165km 21521.184km
远地点 21534.919km 21534.96km
周期 773.233分钟 773.234分钟
每日圈数 1.862311 1.862308
详细信息
平衡模式:
三轴稳定
制造商(研发单位):
中国科学院
制造商所在国:
中国
使用方式:
暂无
工作目标:
为全球用户提供连续、稳定、可靠的北斗导航、定位服务
预期寿命:
12年
卫星简介
北斗卫星导航系统是中国着眼于国家安全和经济社会发展需要,自主建设运行的全球卫星导航系统,是为全球用户提供全天候、全天时、高精度的定位、导航和授时服务的国家重要时空基础设施。该卫星仍在工作。
2D轨道图
3D轨道图
轨道高度分析图
轨道倾角分析图
轨道综合分析图
查看轨道综合分析图